Wetterdaten: Montag, 30.07.2012
Datum Zeit Temperatur Luftfeuchte Regen Wind Richtung Richtung Taupunkt Windchill Windben
30.07.2012 00:00 14,6 C 86 % 0,0 l/m 0,2 km/h (0 Bft) N-NO 22 12,3 C 14,5 C 0,0 km/h (0 Bft)
30.07.2012 00:05 14,6 C 86 % 0,0 l/m 0,0 km/h (0 Bft) NO 45 12,3 C 14,5 C 0,0 km/h (0 Bft)
30.07.2012 00:10 14,6 C 86 % 0,0 l/m 0,2 km/h (0 Bft) N 360 12,3 C 14,5 C 0,0 km/h (0 Bft)
30.07.2012 00:15 14,5 C 86 % 0,0 l/m 0,2 km/h (0 Bft) N 360 12,2 C 14,4 C 0,0 km/h (0 Bft)
30.07.2012 00:20 14,5 C 86 % 0,0 l/m 0,0 km/h (0 Bft) O-NO 67 12,2 C 14,4 C 0,0 km/h (0 Bft)
30.07.2012 00:25 14,4 C 86 % 0,0 l/m 0,0 km/h (0 Bft) NO 45 12,1 C 14,3 C 0,0 km/h (0 Bft)
30.07.2012 00:30 14,4 C 86 % 0,0 l/m 0,0 km/h (0 Bft) N-NO 22 12,1 C 14,3 C 0,0 km/h (0 Bft)
30.07.2012 00:35 14,5 C 86 % 0,0 l/m 0,0 km/h (0 Bft) N 360 12,2 C 14,3 C 1,9 km/h (1 Bft)
30.07.2012 00:40 14,5 C 87 % 0,0 l/m 0,0 km/h (0 Bft) N 360 12,4 C 14,3 C 0,0 km/h (0 Bft)
30.07.2012 00:45 14,4 C 87 % 0,0 l/m 0,5 km/h (0 Bft) N 360 12,3 C 14,3 C 0,0 km/h (0 Bft)
30.07.2012 00:50 14,4 C 87 % 0,0 l/m 0,5 km/h (0 Bft) N 360 12,3 C 14,2 C 2,3 km/h (1 Bft)
30.07.2012 00:55 14,3 C 87 % 0,0 l/m 0,8 km/h (0 Bft) N-NO 22 12,2 C 14,1 C 0,0 km/h (0 Bft)
30.07.2012 01:00 14,2 C 86 % 0,0 l/m 0,8 km/h (0 Bft) NO 45 11,9 C 14,1 C 2,6 km/h (1 Bft)
30.07.2012 01:05 14,2 C 87 % 0,0 l/m 0,2 km/h (0 Bft) O-NO 67 12,1 C 14,1 C 0,0 km/h (0 Bft)
30.07.2012 01:10 14,1 C 87 % 0,0 l/m 0,2 km/h (0 Bft) N 360 12,0 C 14,0 C 1,8 km/h (1 Bft)
30.07.2012 01:15 14,1 C 87 % 0,0 l/m 0,2 km/h (0 Bft) N 360 12,0 C 13,9 C 0,0 km/h (0 Bft)
30.07.2012 01:20 14,1 C 87 % 0,0 l/m 0,2 km/h (0 Bft) N-NO 22 12,0 C 13,9 C 0,0 km/h (0 Bft)
30.07.2012 01:25 14,0 C 87 % 0,0 l/m 0,0 km/h (0 Bft) S 180 11,9 C 13,8 C 0,0 km/h (0 Bft)
30.07.2012 01:30 14,0 C 87 % 0,0 l/m 0,0 km/h (0 Bft) S 180 11,9 C 13,8 C 0,0 km/h (0 Bft)
30.07.2012 01:35 14,0 C 86 % 0,0 l/m 0,0 km/h (0 Bft) N 360 11,7 C 13,8 C 0,0 km/h (0 Bft)
30.07.2012 01:40 14,0 C 86 % 0,0 l/m 0,0 km/h (0 Bft) N-NW 337 11,7 C 13,8 C 0,0 km/h (0 Bft)
30.07.2012 01:45 14,0 C 86 % 0,0 l/m 0,0 km/h (0 Bft) N-NO 22 11,7 C 13,7 C 0,0 km/h (0 Bft)
30.07.2012 01:50 14,0 C 86 % 0,0 l/m 0,0 km/h (0 Bft) N-NO 22 11,7 C 13,8 C 0,0 km/h (0 Bft)
30.07.2012 01:55 14,0 C 86 % 0,0 l/m 1,1 km/h (1 Bft) N 360 11,7 C 13,8 C 2,3 km/h (1 Bft)
30.07.2012 02:00 13,9 C 86 % 0,0 l/m 1,3 km/h (1 Bft) N-NO 22 11,6 C 13,8 C 2,9 km/h (1 Bft)
30.07.2012 02:05 13,9 C 86 % 0,0 l/m 0,5 km/h (0 Bft) O-NO 67 11,6 C 13,8 C 0,0 km/h (0 Bft)
30.07.2012 02:10 13,8 C 86 % 0,0 l/m 0,0 km/h (0 Bft) S 180 11,5 C 13,7 C 0,0 km/h (0 Bft)
30.07.2012 02:15 13,8 C 87 % 0,0 l/m 0,0 km/h (0 Bft) W-NW 292 11,7 C 13,6 C 0,0 km/h (0 Bft)
30.07.2012 02:20 13,8 C 87 % 0,0 l/m 0,0 km/h (0 Bft) N 360 11,7 C 13,6 C 0,0 km/h (0 Bft)
30.07.2012 02:25 13,7 C 86 % 0,0 l/m 0,0 km/h (0 Bft) NO 45 11,4 C 13,6 C 0,0 km/h (0 Bft)
30.07.2012 02:30 13,7 C 86 % 0,0 l/m 0,0 km/h (0 Bft) N 360 11,4 C 13,5 C 0,0 km/h (0 Bft)
30.07.2012 02:35 13,7 C 87 % 0,0 l/m 0,0 km/h (0 Bft) N 360 11,6 C 13,4 C 0,0 km/h (0 Bft)
30.07.2012 02:40 13,7 C 87 % 0,0 l/m 0,0 km/h (0 Bft) NO 45 11,6 C 13,4 C 0,0 km/h (0 Bft)
30.07.2012 02:45 13,7 C 87 % 0,0 l/m 0,3 km/h (0 Bft) N-NO 22 11,6 C 13,4 C 2,1 km/h (1 Bft)
30.07.2012 02:50 13,6 C 87 % 0,0 l/m 0,6 km/h (0 Bft) NO 45 11,5 C 13,4 C 0,0 km/h (0 Bft)
30.07.2012 02:55 13,6 C 87 % 0,0 l/m 0,5 km/h (0 Bft) N-NO 22 11,5 C 13,3 C 0,0 km/h (0 Bft)
30.07.2012 03:00 13,7 C 87 % 0,0 l/m 0,2 km/h (0 Bft) N-NO 22 11,6 C 13,4 C 0,0 km/h (0 Bft)
30.07.2012 03:05 13,6 C 87 % 0,0 l/m 0,2 km/h (0 Bft) N-NW 337 11,5 C 13,3 C 0,0 km/h (0 Bft)
30.07.2012 03:10 13,6 C 87 % 0,0 l/m 0,0 km/h (0 Bft) N-NW 337 11,5 C 13,3 C 0,0 km/h (0 Bft)
30.07.2012 03:15 13,6 C 87 % 0,0 l/m 0,0 km/h (0 Bft) N-NW 337 11,5 C 13,3 C 0,0 km/h (0 Bft)
30.07.2012 03:20 13,5 C 87 % 0,0 l/m 0,0 km/h (0 Bft) N-NO 22 11,4 C 13,3 C 0,0 km/h (0 Bft)
30.07.2012 03:25 13,4 C 87 % 0,0 l/m 0,0 km/h (0 Bft) NO 45 11,3 C 13,2 C 0,0 km/h (0 Bft)
30.07.2012 03:30 13,4 C 87 % 0,0 l/m 0,0 km/h (0 Bft) N-NO 22 11,3 C 13,1 C 0,0 km/h (0 Bft)
30.07.2012 03:35 13,4 C 87 % 0,0 l/m 0,0 km/h (0 Bft) N-NW 337 11,3 C 13,2 C 0,0 km/h (0 Bft)
30.07.2012 03:40 13,4 C 87 % 0,0 l/m 0,0 km/h (0 Bft) N-NW 337 11,3 C 13,1 C 0,0 km/h (0 Bft)
30.07.2012 03:45 13,3 C 87 % 0,0 l/m 0,0 km/h (0 Bft) N-NW 337 11,2 C 13,1 C 0,0 km/h (0 Bft)
30.07.2012 03:50 13,4 C 88 % 0,0 l/m 0,0 km/h (0 Bft) N 360 11,5 C 13,1 C 0,0 km/h (0 Bft)
30.07.2012 03:55 13,3 C 88 % 0,0 l/m 0,0 km/h (0 Bft) N 360 11,4 C 13,1 C 0,0 km/h (0 Bft)
30.07.2012 04:00 13,3 C 88 % 0,0 l/m 0,0 km/h (0 Bft) N-NO 22 11,4 C 13,1 C 0,0 km/h (0 Bft)
30.07.2012 04:05 13,2 C 88 % 0,0 l/m 0,0 km/h (0 Bft) NO 45 11,3 C 13,0 C 0,0 km/h (0 Bft)
30.07.2012 04:10 13,2 C 88 % 0,0 l/m 0,0 km/h (0 Bft) NO 45 11,3 C 13,0 C 0,0 km/h (0 Bft)
30.07.2012 04:15 13,2 C 88 % 0,0 l/m 0,0 km/h (0 Bft) N 360 11,3 C 12,9 C 0,0 km/h (0 Bft)
30.07.2012 04:20 13,3 C 88 % 0,0 l/m 0,0 km/h (0 Bft) N-NO 22 11,4 C 12,9 C 0,0 km/h (0 Bft)
30.07.2012 04:25 13,3 C 88 % 0,0 l/m 0,0 km/h (0 Bft) NO 45 11,4 C 13,0 C 0,0 km/h (0 Bft)
30.07.2012 04:30 13,3 C 88 % 0,0 l/m 0,0 km/h (0 Bft) NO 45 11,4 C 13,0 C 0,0 km/h (0 Bft)
30.07.2012 04:35 13,3 C 88 % 0,0 l/m 0,0 km/h (0 Bft) NO 45 11,4 C 13,0 C 0,0 km/h (0 Bft)
30.07.2012 04:40 13,3 C 88 % 0,0 l/m 0,0 km/h (0 Bft) N 360 11,4 C 13,0 C 0,0 km/h (0 Bft)
30.07.2012 04:45 13,3 C 88 % 0,0 l/m 0,0 km/h (0 Bft) N 360 11,4 C 13,0 C 0,0 km/h (0 Bft)
30.07.2012 04:50 13,3 C 88 % 0,0 l/m 0,0 km/h (0 Bft) NO 45 11,4 C 13,0 C 0,0 km/h (0 Bft)
30.07.2012 04:55 13,3 C 88 % 0,0 l/m 0,0 km/h (0 Bft) N-NO 22 11,4 C 12,9 C 0,0 km/h (0 Bft)
30.07.2012 05:00 13,3 C 88 % 0,0 l/m 0,0 km/h (0 Bft) N-NW 337 11,4 C 12,9 C 0,0 km/h (0 Bft)
30.07.2012 05:05 13,2 C 88 % 0,0 l/m 0,0 km/h (0 Bft) NO 45 11,3 C 12,9 C 0,0 km/h (0 Bft)
30.07.2012 05:10 13,2 C 88 % 0,0 l/m 0,0 km/h (0 Bft) NO 45 11,3 C 12,9 C 0,0 km/h (0 Bft)
30.07.2012 05:15 13,1 C 88 % 0,0 l/m 0,0 km/h (0 Bft) O 90 11,2 C 12,9 C 0,0 km/h (0 Bft)
30.07.2012 05:20 13,1 C 88 % 0,0 l/m 0,0 km/h (0 Bft) NO 45 11,2 C 12,8 C 0,0 km/h (0 Bft)
30.07.2012 05:25 13,1 C 88 % 0,0 l/m 0,0 km/h (0 Bft) N-NW 337 11,2 C 12,8 C 0,0 km/h (0 Bft)
30.07.2012 05:30 13,2 C 88 % 0,0 l/m 0,0 km/h (0 Bft) NO 45 11,3 C 12,8 C 0,0 km/h (0 Bft)
30.07.2012 05:35 13,2 C 88 % 0,0 l/m 0,0 km/h (0 Bft) N-NO 22 11,3 C 12,8 C 0,0 km/h (0 Bft)
30.07.2012 05:40 13,2 C 88 % 0,0 l/m 0,0 km/h (0 Bft) O-NO 67 11,3 C 12,8 C 0,0 km/h (0 Bft)
30.07.2012 05:45 13,1 C 88 % 0,0 l/m 0,0 km/h (0 Bft) O-SO 112 11,2 C 12,8 C 0,0 km/h (0 Bft)
30.07.2012 05:50 13,1 C 88 % 0,0 l/m 0,0 km/h (0 Bft) N 360 11,2 C 12,7 C 0,0 km/h (0 Bft)
30.07.2012 05:55 13,0 C 88 % 0,0 l/m 0,0 km/h (0 Bft) NO 45 11,1 C 12,7 C 0,0 km/h (0 Bft)
30.07.2012 06:00 13,0 C 88 % 0,0 l/m 0,0 km/h (0 Bft) N 360 11,1 C 12,6 C 0,0 km/h (0 Bft)
30.07.2012 06:05 13,0 C 88 % 0,0 l/m 0,0 km/h (0 Bft) NO 45 11,1 C 12,6 C 0,0 km/h (0 Bft)
30.07.2012 06:10 13,0 C 88 % 0,0 l/m 0,0 km/h (0 Bft) NO 45 11,1 C 12,6 C 0,0 km/h (0 Bft)
30.07.2012 06:15 13,0 C 88 % 0,0 l/m 0,0 km/h (0 Bft) SO 135 11,1 C 12,6 C 0,0 km/h (0 Bft)
30.07.2012 06:20 13,1 C 88 % 0,0 l/m 0,0 km/h (0 Bft) SO 135 11,2 C 12,6 C 0,0 km/h (0 Bft)
30.07.2012 06:25 13,0 C 89 % 0,0 l/m 0,0 km/h (0 Bft) N-NO 22 11,2 C 12,6 C 0,0 km/h (0 Bft)
30.07.2012 06:30 12,9 C 89 % 0,0 l/m 0,0 km/h (0 Bft) O-SO 112 11,1 C 12,6 C 0,0 km/h (0 Bft)
30.07.2012 06:35 12,7 C 89 % 0,0 l/m 0,0 km/h (0 Bft) SO 135 10,9 C 12,4 C 0,0 km/h (0 Bft)
30.07.2012 06:40 12,6 C 89 % 0,0 l/m 0,0 km/h (0 Bft) O-SO 112 10,8 C 12,3 C 0,0 km/h (0 Bft)
30.07.2012 06:45 12,7 C 89 % 0,0 l/m 0,0 km/h (0 Bft) O 90 10,9 C 12,5 C 0,0 km/h (0 Bft)
30.07.2012 06:50 13,3 C 88 % 0,0 l/m 0,0 km/h (0 Bft) N 360 11,4 C 12,8 C 0,0 km/h (0 Bft)
30.07.2012 06:55 14,3 C 88 % 0,0 l/m 0,0 km/h (0 Bft) N 360 12,3 C 14,0 C 0,0 km/h (0 Bft)
30.07.2012 07:00 13,8 C 88 % 0,0 l/m 0,0 km/h (0 Bft) N-NO 22 11,8 C 14,3 C 0,0 km/h (0 Bft)
30.07.2012 07:05 13,7 C 88 % 0,0 l/m 0,0 km/h (0 Bft) O-SO 112 11,7 C 14,1 C 0,0 km/h (0 Bft)
30.07.2012 07:10 13,4 C 88 % 0,0 l/m 0,0 km/h (0 Bft) S-SO 157 11,5 C 13,8 C 0,0 km/h (0 Bft)
30.07.2012 07:15 13,3 C 87 % 0,0 l/m 0,0 km/h (0 Bft) SO 135 11,2 C 13,4 C 0,0 km/h (0 Bft)
30.07.2012 07:20 13,4 C 88 % 0,0 l/m 0,0 km/h (0 Bft) N 360 11,5 C 13,3 C 0,0 km/h (0 Bft)
30.07.2012 07:25 17,0 C 83 % 0,0 l/m 0,0 km/h (0 Bft) S 180 14,1 C 16,4 C 0,0 km/h (0 Bft)
30.07.2012 07:30 18,4 C 78 % 0,0 l/m 0,0 km/h (0 Bft) O-SO 112 14,5 C 19,0 C 0,0 km/h (0 Bft)
30.07.2012 07:35 18,4 C 78 % 0,0 l/m 0,0 km/h (0 Bft) O-SO 112 14,5 C 19,0 C 0,0 km/h (0 Bft)
30.07.2012 07:40 17,8 C 77 % 0,0 l/m 0,0 km/h (0 Bft) O-SO 112 13,7 C 20,0 C 0,0 km/h (0 Bft)
30.07.2012 07:45 18,7 C 73 % 0,0 l/m 0,0 km/h (0 Bft) NO 45 13,8 C 21,1 C 0,0 km/h (0 Bft)
30.07.2012 07:50 18,9 C 73 % 0,0 l/m 0,0 km/h (0 Bft) SO 135 13,9 C 21,6 C 0,0 km/h (0 Bft)
30.07.2012 07:55 17,8 C 72 % 0,0 l/m 0,0 km/h (0 Bft) S 180 12,7 C 21,9 C 0,0 km/h (0 Bft)
30.07.2012 08:00 18,0 C 74 % 0,0 l/m 0,0 km/h (0 Bft) SW 225 13,3 C 20,9 C 0,0 km/h (0 Bft)
30.07.2012 08:05 18,3 C 73 % 0,0 l/m 0,2 km/h (0 Bft) S-SO 157 13,4 C 20,1 C 0,0 km/h (0 Bft)
30.07.2012 08:10 19,0 C 71 % 0,0 l/m 0,3 km/h (0 Bft) SO 135 13,6 C 20,4 C 3,4 km/h (1 Bft)
30.07.2012 08:15 17,7 C 71 % 0,0 l/m 0,8 km/h (0 Bft) O-SO 112 12,4 C 19,6 C 1,9 km/h (1 Bft)
30.07.2012 08:20 17,4 C 72 % 0,0 l/m 1,0 km/h (0 Bft) S 180 12,3 C 19,0 C 3,4 km/h (1 Bft)
30.07.2012 08:25 17,0 C 71 % 0,0 l/m 0,8 km/h (0 Bft) S-SW 202 11,7 C 18,3 C 1,6 km/h (1 Bft)
30.07.2012 08:30 17,1 C 72 % 0,0 l/m 0,6 km/h (0 Bft) W-SW 247 12,0 C 18,1 C 0,0 km/h (0 Bft)
30.07.2012 08:35 17,1 C 73 % 0,0 l/m 0,2 km/h (0 Bft) O-SO 112 12,2 C 18,1 C 0,0 km/h (0 Bft)
30.07.2012 08:40 17,1 C 73 % 0,0 l/m 0,5 km/h (0 Bft) S 180 12,2 C 18,1 C 0,0 km/h (0 Bft)
30.07.2012 08:45 17,6 C 73 % 0,0 l/m 1,0 km/h (0 Bft) S-SW 202 12,7 C 18,2 C 0,0 km/h (0 Bft)
30.07.2012 08:50 19,5 C 67 % 0,0 l/m 0,5 km/h (0 Bft) N-NW 337 14,7 C 19,2 C 4,2 km/h (1 Bft)
30.07.2012 08:55 19,3 C 62 % 0,0 l/m 0,8 km/h (0 Bft) N-NW 337 12,7 C 22,2 C 1,6 km/h (1 Bft)
30.07.2012 09:00 19,0 C 64 % 0,0 l/m 1,0 km/h (0 Bft) S-SO 157 12,0 C 21,9 C 2,6 km/h (1 Bft)
30.07.2012 09:05 18,2 C 66 % 0,0 l/m 2,1 km/h (1 Bft) O-SO 112 11,7 C 20,9 C 4,5 km/h (1 Bft)
30.07.2012 09:10 18,0 C 67 % 0,0 l/m 2,9 km/h (1 Bft) SO 135 11,8 C 20,0 C 5,8 km/h (2 Bft)
30.07.2012 09:15 19,2 C 66 % 0,0 l/m 2,7 km/h (1 Bft) O-SO 112 12,7 C 19,4 C 3,2 km/h (1 Bft)
30.07.2012 09:20 20,0 C 58 % 0,0 l/m 2,3 km/h (1 Bft) SO 135 13,1 C 20,6 C 1,8 km/h (1 Bft)
30.07.2012 09:25 20,4 C 56 % 0,0 l/m 2,1 km/h (1 Bft) S 180 11,9 C 23,0 C 2,3 km/h (1 Bft)
30.07.2012 09:30 20,2 C 59 % 0,0 l/m 2,1 km/h (1 Bft) S 180 11,9 C 22,4 C 3,5 km/h (1 Bft)
30.07.2012 09:35 19,8 C 60 % 0,0 l/m 2,9 km/h (1 Bft) S-SO 157 11,8 C 21,9 C 4,0 km/h (1 Bft)
30.07.2012 09:40 19,7 C 60 % 0,0 l/m 3,4 km/h (1 Bft) S 180 11,7 C 21,1 C 7,9 km/h (2 Bft)
30.07.2012 09:45 19,5 C 59 % 0,0 l/m 3,7 km/h (1 Bft) S 180 11,3 C 20,4 C 4,8 km/h (1 Bft)
30.07.2012 09:50 20,0 C 62 % 0,0 l/m 3,7 km/h (1 Bft) SO 135 12,7 C 20,2 C 5,1 km/h (1 Bft)
30.07.2012 09:55 20,0 C 60 % 0,0 l/m 3,7 km/h (1 Bft) SO 135 12,0 C 20,7 C 2,3 km/h (1 Bft)
30.07.2012 10:00 19,3 C 59 % 0,0 l/m 3,5 km/h (1 Bft) SO 135 11,1 C 20,4 C 2,1 km/h (1 Bft)
30.07.2012 10:05 19,3 C 63 % 0,0 l/m 2,6 km/h (1 Bft) SO 135 12,1 C 20,1 C 3,4 km/h (1 Bft)
30.07.2012 10:10 19,3 C 62 % 0,0 l/m 2,1 km/h (1 Bft) SO 135 11,8 C 20,1 C 4,8 km/h (1 Bft)
30.07.2012 10:15 19,1 C 60 % 0,0 l/m 2,1 km/h (1 Bft) O-SO 112 11,1 C 20,2 C 2,1 km/h (1 Bft)
30.07.2012 10:20 19,3 C 60 % 0,0 l/m 2,7 km/h (1 Bft) S 180 11,3 C 20,4 C 3,4 km/h (1 Bft)
30.07.2012 10:25 19,4 C 59 % 0,0 l/m 3,9 km/h (1 Bft) SO 135 11,2 C 20,2 C 4,2 km/h (1 Bft)
30.07.2012 10:30 19,5 C 58 % 0,0 l/m 4,3 km/h (1 Bft) O-SO 112 11,0 C 20,4 C 8,4 km/h (2 Bft)
30.07.2012 10:35 18,9 C 59 % 0,0 l/m 6,1 km/h (2 Bft) O-SO 112 10,7 C 20,1 C 10,8 km/h (2 Bft)
30.07.2012 10:40 19,0 C 59 % 0,0 l/m 7,1 km/h (2 Bft) SO 135 10,8 C 19,5 C 11,9 km/h (2 Bft)
30.07.2012 10:45 19,1 C 59 % 0,0 l/m 6,3 km/h (2 Bft) SO 135 10,9 C 19,6 C 6,0 km/h (2 Bft)
30.07.2012 10:50 19,0 C 59 % 0,0 l/m 5,0 km/h (1 Bft) O 90 10,8 C 19,6 C 3,9 km/h (1 Bft)
30.07.2012 10:55 19,5 C 59 % 0,0 l/m 4,2 km/h (1 Bft) O-SO 112 11,3 C 20,0 C 9,8 km/h (2 Bft)
30.07.2012 11:00 19,6 C 58 % 0,0 l/m 4,0 km/h (1 Bft) SO 135 11,1 C 20,3 C 7,1 km/h (2 Bft)
30.07.2012 11:05 20,1 C 59 % 0,0 l/m 3,5 km/h (1 Bft) S 180 11,8 C 21,0 C 2,3 km/h (1 Bft)
30.07.2012 11:10 19,9 C 59 % 0,0 l/m 3,1 km/h (1 Bft) S 180 11,6 C 21,2 C 5,5 km/h (1 Bft)
30.07.2012 11:15 19,6 C 59 % 0,0 l/m 4,0 km/h (1 Bft) NO 45 11,4 C 20,9 C 9,5 km/h (2 Bft)
30.07.2012 11:21 19,5 C 59 % 0,0 l/m 5,5 km/h (1 Bft) O-SO 112 11,3 C 20,7 C 10,1 km/h (2 Bft)
30.07.2012 11:25 19,5 C 58 % 0,0 l/m 6,4 km/h (2 Bft) SO 135 11,0 C 20,4 C 8,7 km/h (2 Bft)
30.07.2012 11:30 19,5 C 57 % 0,0 l/m 6,1 km/h (2 Bft) S 180 10,8 C 20,3 C 4,2 km/h (1 Bft)
30.07.2012 11:35 19,2 C 58 % 0,0 l/m 4,7 km/h (1 Bft) S 180 10,7 C 20,2 C 3,7 km/h (1 Bft)
30.07.2012 11:40 18,9 C 59 % 0,0 l/m 3,2 km/h (1 Bft) SO 135 10,7 C 20,1 C 1,6 km/h (1 Bft)
30.07.2012 11:45 19,2 C 59 % 0,0 l/m 2,1 km/h (1 Bft) S 180 11,0 C 20,3 C 3,5 km/h (1 Bft)
30.07.2012 11:50 18,7 C 60 % 0,0 l/m 2,6 km/h (1 Bft) S 180 10,8 C 20,1 C 6,0 km/h (2 Bft)
30.07.2012 11:55 18,3 C 60 % 0,0 l/m 4,7 km/h (1 Bft) SO 135 10,4 C 19,2 C 5,3 km/h (1 Bft)
30.07.2012 12:00 18,8 C 62 % 0,0 l/m 4,7 km/h (1 Bft) SO 135 11,4 C 19,2 C 5,1 km/h (1 Bft)
30.07.2012 12:05 19,2 C 58 % 0,0 l/m 3,7 km/h (1 Bft) S 180 10,7 C 19,8 C 6,4 km/h (2 Bft)
30.07.2012 12:10 19,5 C 59 % 0,0 l/m 3,7 km/h (1 Bft) O-SO 112 11,3 C 20,3 C 4,2 km/h (1 Bft)
30.07.2012 12:15 19,5 C 59 % 0,0 l/m 5,1 km/h (1 Bft) O-NO 67 11,3 C 20,5 C 11,1 km/h (2 Bft)
30.07.2012 12:20 19,6 C 59 % 0,0 l/m 5,8 km/h (2 Bft) S-SO 157 11,4 C 20,4 C 5,8 km/h (2 Bft)
30.07.2012 12:25 19,6 C 59 % 0,0 l/m 5,1 km/h (1 Bft) O 90 11,4 C 20,3 C 4,8 km/h (1 Bft)
30.07.2012 12:30 20,4 C 59 % 0,0 l/m 3,9 km/h (1 Bft) S 180 12,1 C 20,6 C 5,3 km/h (1 Bft)
30.07.2012 12:35 20,6 C 56 % 0,0 l/m 3,5 km/h (1 Bft) SO 135 11,5 C 21,4 C 5,5 km/h (1 Bft)
30.07.2012 12:40 20,3 C 56 % 0,0 l/m 4,0 km/h (1 Bft) O-SO 112 11,2 C 21,5 C 3,2 km/h (1 Bft)
30.07.2012 12:45 20,2 C 57 % 0,0 l/m 4,5 km/h (1 Bft) S-SO 157 11,4 C 21,4 C 4,3 km/h (1 Bft)
30.07.2012 12:50 20,8 C 59 % 0,0 l/m 3,9 km/h (1 Bft) SO 135 12,5 C 21,4 C 4,8 km/h (1 Bft)
30.07.2012 12:55 20,7 C 54 % 0,0 l/m 3,7 km/h (1 Bft) O-SO 112 11,1 C 21,9 C 2,6 km/h (1 Bft)
30.07.2012 13:00 20,9 C 53 % 0,0 l/m 4,5 km/h (1 Bft) SO 135 11,0 C 22,1 C 5,5 km/h (1 Bft)
30.07.2012 13:05 20,8 C 55 % 0,0 l/m 4,5 km/h (1 Bft) O-SO 112 11,4 C 22,4 C 5,5 km/h (1 Bft)
30.07.2012 13:10 20,6 C 55 % 0,0 l/m 4,8 km/h (1 Bft) SO 135 11,2 C 21,9 C 6,0 km/h (2 Bft)
30.07.2012 13:15 20,4 C 57 % 0,0 l/m 4,5 km/h (1 Bft) O-SO 112 11,6 C 21,6 C 6,6 km/h (2 Bft)
30.07.2012 13:20 20,5 C 56 % 0,0 l/m 4,0 km/h (1 Bft) S 180 11,4 C 21,4 C 5,8 km/h (2 Bft)
30.07.2012 13:25 20,8 C 54 % 0,0 l/m 4,2 km/h (1 Bft) W 270 11,1 C 21,7 C 3,4 km/h (1 Bft)
30.07.2012 13:30 20,6 C 55 % 0,0 l/m 3,9 km/h (1 Bft) N 360 11,2 C 22,0 C 1,9 km/h (1 Bft)
30.07.2012 13:35 20,9 C 55 % 0,0 l/m 4,0 km/h (1 Bft) S 180 11,5 C 22,2 C 4,2 km/h (1 Bft)
30.07.2012 13:40 21,0 C 55 % 0,0 l/m 4,0 km/h (1 Bft) S-SO 157 11,6 C 22,2 C 2,3 km/h (1 Bft)
30.07.2012 13:45 20,8 C 55 % 0,0 l/m 3,1 km/h (1 Bft) S 180 11,4 C 22,4 C 3,4 km/h (1 Bft)
30.07.2012 13:50 21,4 C 54 % 0,0 l/m 3,1 km/h (1 Bft) SO 135 11,7 C 22,5 C 6,3 km/h (2 Bft)
30.07.2012 13:55 21,0 C 56 % 0,0 l/m 3,4 km/h (1 Bft) SO 135 11,9 C 22,6 C 5,0 km/h (1 Bft)
30.07.2012 14:00 20,7 C 56 % 0,0 l/m 3,7 km/h (1 Bft) W-NW 292 11,6 C 22,3 C 4,5 km/h (1 Bft)
30.07.2012 14:05 20,1 C 57 % 0,0 l/m 4,2 km/h (1 Bft) S 180 11,3 C 21,6 C 5,8 km/h (2 Bft)
30.07.2012 14:10 19,9 C 57 % 0,0 l/m 3,5 km/h (1 Bft) O-SO 112 11,1 C 21,2 C 4,5 km/h (1 Bft)
30.07.2012 14:15 20,0 C 57 % 0,0 l/m 3,1 km/h (1 Bft) O-SO 112 11,2 C 21,1 C 4,5 km/h (1 Bft)
30.07.2012 14:20 20,1 C 58 % 0,0 l/m 3,5 km/h (1 Bft) O-SO 112 11,6 C 21,1 C 4,2 km/h (1 Bft)
30.07.2012 14:25 20,0 C 58 % 0,0 l/m 2,9 km/h (1 Bft) SO 135 11,5 C 21,1 C 3,1 km/h (1 Bft)
30.07.2012 14:30 20,0 C 58 % 0,0 l/m 2,4 km/h (1 Bft) SO 135 11,5 C 21,1 C 9,5 km/h (2 Bft)
30.07.2012 14:35 20,3 C 57 % 0,0 l/m 2,9 km/h (1 Bft) SO 135 11,5 C 21,1 C 2,4 km/h (1 Bft)
30.07.2012 14:40 20,8 C 57 % 0,0 l/m 2,4 km/h (1 Bft) W 270 12,0 C 21,4 C 0,0 km/h (0 Bft)
30.07.2012 14:45 20,4 C 57 % 0,0 l/m 0,8 km/h (0 Bft) SO 135 11,6 C 22,1 C 2,6 km/h (1 Bft)
30.07.2012 14:50 20,6 C 57 % 0,0 l/m 1,1 km/h (1 Bft) O 90 11,8 C 22,7 C 0,0 km/h (0 Bft)
30.07.2012 14:55 21,0 C 56 % 0,0 l/m 2,1 km/h (1 Bft) O 90 11,9 C 22,9 C 2,7 km/h (1 Bft)
30.07.2012 15:00 21,1 C 54 % 0,0 l/m 3,1 km/h (1 Bft) O-SO 112 11,4 C 22,9 C 5,1 km/h (1 Bft)
30.07.2012 15:05 21,6 C 54 % 0,0 l/m 4,5 km/h (1 Bft) O-SO 112 11,9 C 23,0 C 2,7 km/h (1 Bft)
30.07.2012 15:10 21,6 C 55 % 0,0 l/m 4,0 km/h (1 Bft) S 180 12,2 C 23,2 C 2,9 km/h (1 Bft)
30.07.2012 15:15 22,0 C 55 % 0,0 l/m 2,7 km/h (1 Bft) SO 135 12,5 C 23,9 C 4,5 km/h (1 Bft)
30.07.2012 15:20 21,7 C 53 % 0,0 l/m 2,1 km/h (1 Bft) SO 135 11,7 C 24,0 C 2,6 km/h (1 Bft)
30.07.2012 15:25 21,3 C 54 % 0,0 l/m 3,1 km/h (1 Bft) O-SO 112 11,6 C 23,6 C 5,5 km/h (1 Bft)
30.07.2012 15:30 21,2 C 54 % 0,0 l/m 3,1 km/h (1 Bft) W-SW 247 11,5 C 23,4 C 3,1 km/h (1 Bft)
30.07.2012 15:35 21,0 C 53 % 0,0 l/m 2,1 km/h (1 Bft) S-SW 202 11,0 C 23,5 C 0,0 km/h (0 Bft)
30.07.2012 15:40 20,9 C 54 % 0,0 l/m 1,8 km/h (1 Bft) O 90 11,2 C 23,5 C 2,1 km/h (1 Bft)
30.07.2012 15:45 21,0 C 56 % 0,0 l/m 2,1 km/h (1 Bft) O 90 11,9 C 23,8 C 3,7 km/h (1 Bft)
30.07.2012 15:50 22,1 C 52 % 0,0 l/m 2,6 km/h (1 Bft) N-NW 337 11,8 C 24,4 C 6,3 km/h (2 Bft)
30.07.2012 15:55 21,0 C 52 % 0,0 l/m 2,1 km/h (1 Bft) N-NO 22 10,8 C 24,4 C 0,0 km/h (0 Bft)
30.07.2012 16:00 21,2 C 52 % 0,0 l/m 1,9 km/h (1 Bft) W-SW 247 10,9 C 24,3 C 7,6 km/h (2 Bft)
30.07.2012 16:05 21,3 C 56 % 0,0 l/m 1,8 km/h (1 Bft) S 180 12,2 C 24,1 C 1,6 km/h (1 Bft)
30.07.2012 16:10 20,8 C 53 % 0,0 l/m 1,8 km/h (1 Bft) N 360 10,9 C 23,9 C 2,6 km/h (1 Bft)
30.07.2012 16:15 20,5 C 54 % 0,0 l/m 1,0 km/h (0 Bft) N-NW 337 10,9 C 23,8 C 2,3 km/h (1 Bft)
30.07.2012 16:20 20,2 C 56 % 0,0 l/m 1,6 km/h (1 Bft) S 180 11,1 C 23,3 C 2,7 km/h (1 Bft)
30.07.2012 16:25 20,5 C 56 % 0,0 l/m 1,3 km/h (1 Bft) SO 135 11,4 C 23,1 C 0,0 km/h (0 Bft)
30.07.2012 16:30 20,5 C 58 % 0,0 l/m 0,6 km/h (0 Bft) SO 135 11,9 C 23,2 C 0,0 km/h (0 Bft)
30.07.2012 16:35 21,1 C 57 % 0,0 l/m 1,1 km/h (1 Bft) O-SO 112 12,2 C 23,6 C 5,3 km/h (1 Bft)
30.07.2012 16:40 21,4 C 55 % 0,0 l/m 2,4 km/h (1 Bft) S-SO 157 12,0 C 23,9 C 6,1 km/h (2 Bft)
30.07.2012 16:45 21,4 C 57 % 0,0 l/m 2,3 km/h (1 Bft) O-SO 112 12,5 C 24,1 C 3,4 km/h (1 Bft)
30.07.2012 16:50 22,0 C 54 % 0,0 l/m 1,9 km/h (1 Bft) O-NO 67 12,3 C 24,5 C 1,9 km/h (1 Bft)
30.07.2012 16:55 22,1 C 51 % 0,0 l/m 2,9 km/h (1 Bft) W-SW 247 11,5 C 26,1 C 2,7 km/h (1 Bft)
30.07.2012 17:00 22,1 C 53 % 0,0 l/m 2,9 km/h (1 Bft) N-NO 22 12,1 C 26,7 C 7,4 km/h (2 Bft)
30.07.2012 17:05 21,4 C 54 % 0,0 l/m 2,9 km/h (1 Bft) N 360 11,7 C 26,8 C 2,7 km/h (1 Bft)
30.07.2012 17:10 21,3 C 53 % 0,0 l/m 3,2 km/h (1 Bft) SO 135 11,3 C 26,9 C 7,6 km/h (2 Bft)
30.07.2012 17:15 21,3 C 51 % 0,0 l/m 4,8 km/h (1 Bft) S-SO 157 10,7 C 26,6 C 10,1 km/h (2 Bft)
30.07.2012 17:20 21,2 C 53 % 0,0 l/m 6,1 km/h (2 Bft) S-SW 202 11,2 C 26,0 C 8,5 km/h (2 Bft)
30.07.2012 17:25 21,6 C 53 % 0,0 l/m 5,6 km/h (1 Bft) O-SO 112 11,6 C 25,7 C 5,5 km/h (1 Bft)
30.07.2012 17:30 21,4 C 52 % 0,0 l/m 5,8 km/h (2 Bft) SO 135 11,1 C 26,0 C 9,8 km/h (2 Bft)
30.07.2012 17:35 20,8 C 53 % 0,0 l/m 5,5 km/h (1 Bft) S 180 10,9 C 24,6 C 6,3 km/h (2 Bft)
30.07.2012 17:40 20,6 C 54 % 0,0 l/m 4,5 km/h (1 Bft) S-SO 157 11,0 C 23,6 C 4,8 km/h (1 Bft)
30.07.2012 17:45 21,0 C 56 % 0,0 l/m 3,5 km/h (1 Bft) S 180 11,9 C 24,2 C 4,8 km/h (1 Bft)
30.07.2012 17:50 20,8 C 54 % 0,0 l/m 3,9 km/h (1 Bft) S-SW 202 11,1 C 25,0 C 4,7 km/h (1 Bft)
30.07.2012 17:55 20,6 C 55 % 0,0 l/m 3,9 km/h (1 Bft) S-SW 202 11,2 C 25,5 C 2,1 km/h (1 Bft)
30.07.2012 18:00 20,4 C 56 % 0,0 l/m 3,2 km/h (1 Bft) S-SW 202 11,3 C 25,8 C 4,5 km/h (1 Bft)
30.07.2012 18:05 20,5 C 57 % 0,0 l/m 3,7 km/h (1 Bft) S 180 11,7 C 25,7 C 6,6 km/h (2 Bft)
30.07.2012 18:10 20,7 C 56 % 0,0 l/m 4,3 km/h (1 Bft) S 180 11,6 C 25,7 C 5,1 km/h (1 Bft)
30.07.2012 18:15 20,4 C 56 % 0,0 l/m 4,2 km/h (1 Bft) S 180 11,3 C 25,7 C 4,5 km/h (1 Bft)
30.07.2012 18:20 20,3 C 57 % 0,0 l/m 3,7 km/h (1 Bft) S 180 11,5 C 25,6 C 4,2 km/h (1 Bft)
30.07.2012 18:25 19,9 C 55 % 0,0 l/m 3,4 km/h (1 Bft) SO 135 10,6 C 24,8 C 2,6 km/h (1 Bft)
30.07.2012 18:30 19,6 C 56 % 0,0 l/m 3,2 km/h (1 Bft) O-SO 112 10,6 C 23,9 C 3,5 km/h (1 Bft)
30.07.2012 18:35 19,5 C 57 % 0,0 l/m 2,7 km/h (1 Bft) SW 225 10,8 C 23,0 C 2,1 km/h (1 Bft)
30.07.2012 18:40 19,7 C 57 % 0,0 l/m 2,4 km/h (1 Bft) SO 135 10,9 C 23,6 C 5,0 km/h (1 Bft)
30.07.2012 18:45 20,1 C 56 % 0,0 l/m 2,4 km/h (1 Bft) O-SO 112 11,0 C 24,6 C 5,1 km/h (1 Bft)
30.07.2012 18:50 20,0 C 56 % 0,0 l/m 3,2 km/h (1 Bft) SO 135 11,0 C 24,8 C 2,1 km/h (1 Bft)
30.07.2012 18:55 19,5 C 57 % 0,0 l/m 2,4 km/h (1 Bft) O 90 10,8 C 25,2 C 5,3 km/h (1 Bft)
30.07.2012 19:00 19,5 C 57 % 0,0 l/m 2,1 km/h (1 Bft) S-SW 202 10,8 C 25,1 C 2,9 km/h (1 Bft)
30.07.2012 19:05 19,6 C 56 % 0,0 l/m 3,4 km/h (1 Bft) S-SW 202 10,6 C 24,8 C 6,1 km/h (2 Bft)
30.07.2012 19:10 19,6 C 55 % 0,0 l/m 3,4 km/h (1 Bft) S-SW 202 10,3 C 24,5 C 2,3 km/h (1 Bft)
30.07.2012 19:15 19,5 C 55 % 0,0 l/m 2,6 km/h (1 Bft) S-SW 202 10,2 C 24,5 C 2,6 km/h (1 Bft)
30.07.2012 19:20 19,3 C 57 % 0,0 l/m 2,4 km/h (1 Bft) S 180 10,6 C 24,6 C 6,1 km/h (2 Bft)
30.07.2012 19:25 19,3 C 56 % 0,0 l/m 3,5 km/h (1 Bft) SO 135 10,3 C 24,1 C 5,8 km/h (2 Bft)
30.07.2012 19:30 19,2 C 57 % 0,0 l/m 3,5 km/h (1 Bft) S-SO 157 10,5 C 23,8 C 2,4 km/h (1 Bft)
30.07.2012 19:35 18,8 C 58 % 0,0 l/m 2,4 km/h (1 Bft) O-SO 112 10,4 C 23,9 C 2,9 km/h (1 Bft)
30.07.2012 19:40 18,6 C 58 % 0,0 l/m 1,8 km/h (1 Bft) SO 135 10,2 C 23,9 C 1,8 km/h (1 Bft)
30.07.2012 19:45 18,3 C 59 % 0,0 l/m 1,0 km/h (0 Bft) O-SO 112 10,1 C 23,9 C 1,8 km/h (1 Bft)
30.07.2012 19:50 18,3 C 59 % 0,0 l/m 0,6 km/h (0 Bft) S-SO 157 10,1 C 23,7 C 0,0 km/h (0 Bft)
30.07.2012 19:55 18,3 C 60 % 0,0 l/m 0,6 km/h (0 Bft) SO 135 10,4 C 23,5 C 1,6 km/h (1 Bft)
30.07.2012 20:00 18,4 C 60 % 0,0 l/m 1,0 km/h (0 Bft) S-SO 157 10,5 C 23,4 C 3,2 km/h (1 Bft)
30.07.2012 20:05 18,9 C 60 % 0,0 l/m 1,8 km/h (1 Bft) SO 135 11,0 C 23,1 C 4,0 km/h (1 Bft)
30.07.2012 20:10 18,9 C 59 % 0,0 l/m 2,4 km/h (1 Bft) SO 135 10,7 C 22,9 C 2,4 km/h (1 Bft)
30.07.2012 20:15 18,6 C 60 % 0,0 l/m 2,3 km/h (1 Bft) O 90 10,7 C 22,4 C 2,7 km/h (1 Bft)
30.07.2012 20:20 18,1 C 60 % 0,0 l/m 1,6 km/h (1 Bft) SO 135 10,2 C 21,9 C 0,0 km/h (0 Bft)
30.07.2012 20:25 17,6 C 61 % 0,0 l/m 0,6 km/h (0 Bft) N-NO 22 10,0 C 20,8 C 0,0 km/h (0 Bft)
30.07.2012 20:30 17,3 C 62 % 0,0 l/m 0,3 km/h (0 Bft) N 360 9,9 C 19,8 C 1,6 km/h (1 Bft)
30.07.2012 20:35 16,8 C 65 % 0,0 l/m 0,2 km/h (0 Bft) NO 45 10,2 C 18,6 C 0,0 km/h (0 Bft)
30.07.2012 20:40 16,5 C 66 % 0,0 l/m 0,0 km/h (0 Bft) O-NO 67 10,1 C 18,0 C 0,0 km/h (0 Bft)
30.07.2012 20:45 16,1 C 68 % 0,0 l/m 0,2 km/h (0 Bft) NO 45 10,2 C 17,2 C 0,0 km/h (0 Bft)
30.07.2012 20:50 15,8 C 71 % 0,0 l/m 0,2 km/h (0 Bft) N-NO 22 10,6 C 16,6 C 0,0 km/h (0 Bft)
30.07.2012 20:55 15,6 C 71 % 0,0 l/m 0,0 km/h (0 Bft) N-NO 22 10,4 C 15,9 C 0,0 km/h (0 Bft)
30.07.2012 21:00 15,5 C 72 % 0,0 l/m 0,0 km/h (0 Bft) NO 45 10,5 C 15,6 C 0,0 km/h (0 Bft)
30.07.2012 21:05 15,3 C 72 % 0,0 l/m 0,2 km/h (0 Bft) NO 45 10,3 C 15,1 C 0,0 km/h (0 Bft)
30.07.2012 21:10 15,2 C 73 % 0,0 l/m 0,2 km/h (0 Bft) O-SO 112 10,4 C 15,0 C 0,0 km/h (0 Bft)
30.07.2012 21:15 14,9 C 73 % 0,0 l/m 0,0 km/h (0 Bft) O 90 10,1 C 14,8 C 0,0 km/h (0 Bft)
30.07.2012 21:20 14,8 C 74 % 0,0 l/m 0,0 km/h (0 Bft) N-NW 337 10,2 C 14,6 C 0,0 km/h (0 Bft)
30.07.2012 21:25 14,5 C 74 % 0,0 l/m 0,0 km/h (0 Bft) N-NO 22 9,9 C 14,4 C 0,0 km/h (0 Bft)
30.07.2012 21:30 14,9 C 75 % 0,0 l/m 0,2 km/h (0 Bft) N 360 10,5 C 14,5 C 0,0 km/h (0 Bft)
30.07.2012 21:35 14,9 C 75 % 0,0 l/m 0,2 km/h (0 Bft) NO 45 10,5 C 14,7 C 0,0 km/h (0 Bft)
30.07.2012 21:40 14,9 C 75 % 0,0 l/m 0,2 km/h (0 Bft) NO 45 10,5 C 14,9 C 0,0 km/h (0 Bft)
30.07.2012 21:45 14,9 C 75 % 0,0 l/m 0,0 km/h (0 Bft) N-NO 22 10,5 C 14,9 C 2,1 km/h (1 Bft)
30.07.2012 21:50 15,0 C 75 % 0,0 l/m 0,2 km/h (0 Bft) N-NO 22 10,6 C 14,9 C 0,0 km/h (0 Bft)
30.07.2012 21:55 15,1 C 75 % 0,0 l/m 1,0 km/h (0 Bft) N 360 10,7 C 15,0 C 2,1 km/h (1 Bft)
30.07.2012 22:00 15,1 C 75 % 0,0 l/m 1,0 km/h (0 Bft) N 360 10,7 C 15,1 C 2,1 km/h (1 Bft)
30.07.2012 22:05 15,2 C 76 % 0,0 l/m 1,1 km/h (1 Bft) N-NO 22 11,0 C 15,1 C 0,0 km/h (0 Bft)
30.07.2012 22:10 15,2 C 76 % 0,0 l/m 1,0 km/h (0 Bft) N-NO 22 11,0 C 15,3 C 2,3 km/h (1 Bft)
30.07.2012 22:15 15,2 C 76 % 0,0 l/m 0,6 km/h (0 Bft) O 90 11,0 C 15,4 C 0,0 km/h (0 Bft)
30.07.2012 22:20 15,3 C 77 % 0,0 l/m 1,0 km/h (0 Bft) NO 45 11,3 C 15,4 C 0,0 km/h (0 Bft)
30.07.2012 22:25 15,3 C 76 % 0,0 l/m 1,0 km/h (0 Bft) N 360 11,1 C 15,4 C 2,7 km/h (1 Bft)
30.07.2012 22:30 15,4 C 76 % 0,0 l/m 1,0 km/h (0 Bft) N-NO 22 11,2 C 15,4 C 0,0 km/h (0 Bft)
30.07.2012 22:35 15,3 C 76 % 0,0 l/m 0,8 km/h (0 Bft) O-NO 67 11,1 C 15,4 C 0,0 km/h (0 Bft)
30.07.2012 22:40 15,2 C 76 % 0,0 l/m 0,2 km/h (0 Bft) NO 45 11,0 C 15,4 C 0,0 km/h (0 Bft)
30.07.2012 22:45 15,1 C 76 % 0,0 l/m 0,2 km/h (0 Bft) N 360 10,9 C 15,2 C 0,0 km/h (0 Bft)
30.07.2012 22:50 15,1 C 76 % 0,0 l/m 0,5 km/h (0 Bft) N 360 10,9 C 15,1 C 2,9 km/h (1 Bft)
30.07.2012 22:55 15,1 C 76 % 0,0 l/m 0,8 km/h (0 Bft) N-NW 337 10,9 C 15,1 C 2,3 km/h (1 Bft)
30.07.2012 23:00 15,1 C 76 % 0,0 l/m 1,0 km/h (0 Bft) N 360 10,9 C 15,1 C 0,0 km/h (0 Bft)
30.07.2012 23:05 15,0 C 76 % 0,0 l/m 0,6 km/h (0 Bft) NO 45 10,8 C 15,0 C 0,0 km/h (0 Bft)
30.07.2012 23:10 14,9 C 76 % 0,0 l/m 0,2 km/h (0 Bft) N-NW 337 10,7 C 15,0 C 0,0 km/h (0 Bft)
30.07.2012 23:15 14,7 C 77 % 0,0 l/m 0,0 km/h (0 Bft) O-NO 67 10,7 C 14,7 C 0,0 km/h (0 Bft)
30.07.2012 23:20 14,3 C 76 % 0,0 l/m 0,0 km/h (0 Bft) NO 45 10,1 C 14,3 C 0,0 km/h (0 Bft)
30.07.2012 23:25 13,9 C 78 % 0,0 l/m 0,2 km/h (0 Bft) N-NO 22 10,1 C 13,9 C 0,0 km/h (0 Bft)
30.07.2012 23:30 13,8 C 78 % 0,0 l/m 0,2 km/h (0 Bft) NO 45 10,0 C 13,7 C 0,0 km/h (0 Bft)
30.07.2012 23:35 13,5 C 79 % 0,0 l/m 0,5 km/h (0 Bft) NO 45 9,9 C 13,4 C 1,9 km/h (1 Bft)
30.07.2012 23:40 13,5 C 79 % 0,0 l/m 0,8 km/h (0 Bft) N-NO 22 9,9 C 13,3 C 2,6 km/h (1 Bft)
30.07.2012 23:45 13,2 C 79 % 0,0 l/m 0,6 km/h (0 Bft) N-NO 22 9,6 C 13,1 C 0,0 km/h (0 Bft)
30.07.2012 23:50 13,1 C 79 % 0,0 l/m 0,2 km/h (0 Bft) N-NO 22 9,5 C 13,0 C 0,0 km/h (0 Bft)
30.07.2012 23:55 13,1 C 80 % 0,0 l/m 0,0 km/h (0 Bft) NO 45 9,7 C 12,8 C 0,0 km/h (0 Bft)
_ Min-Zeit 06:40 17:15 - 23:55 - - 23:50 06:40 23:55
Minimum _ 12,6 C 51 % - 0,0 km/h (0 Bft) - - 9,5 C 12,3 C 0,0 km/h (0 Bft)
_ Max-Zeit 17:00 06:45 23:55 10:40 - - 08:50 17:10 10:40
Maximum _ 22,1 C 89 % 0,0 l/m 7,1 km/h
SO (2 Bft)
- - 14,7 C 26,9 C 11,9 km/h
SO (2 Bft)
Durchschnitt _ 17,2 C 70 % #0,0 l/m 1,7 km/h (1 Bft) SO - 11,4 C 18,4 C 2,3 km/h (1 Bft)